TimeMST,TemperatureF,Dew PointF,Humidity,Sea Level PressureIn,VisibilityMPH,Wind Direction,Wind SpeedMPH,Gust SpeedMPH,PrecipitationIn,Events,Conditions,WindDirDegrees,DateUTC
12:15 AM,50.0,44.6,82,29.61,7.0,ESE,9.2,16.1,0.02,Rain,Light Rain,110,2012-12-04 07:15:00
12:35 AM,50.0,44.6,82,29.58,7.0,SE,6.9,18.4,0.07,Rain,Rain,130,2012-12-04 07:35:00
12:55 AM,51.8,44.6,76,29.57,7.0,SE,4.6,-,0.12,Rain,Rain,140,2012-12-04 07:55:00
1:15 AM,51.8,46.4,82,29.57,5.0,SE,12.7,20.7,0.01,,Heavy Drizzle,140,2012-12-04 08:15:00
1:55 AM,50.0,46.4,87,29.56,4.0,SE,4.6,-,0.07,Rain,Rain,140,2012-12-04 08:55:00
2:15 AM,51.8,48.2,88,29.57,5.0,South,16.1,23.0,0.06,Rain,Rain,180,2012-12-04 09:15:00
2:35 AM,55.4,51.8,88,29.56,7.0,South,24.2,34.5,0.06,,Drizzle,180,2012-12-04 09:35:00
2:55 AM,55.4,51.8,88,29.57,4.0,South,29.9,44.9,0.07,Rain,Light Rain,190,2012-12-04 09:55:00
3:15 AM,55.4,51.8,88,29.60,3.0,SSW,29.9,47.2,N/A,Rain,Rain,200,2012-12-04 10:15:00
3:35 AM,55.4,51.8,88,29.62,3.0,SSW,23.0,35.7,N/A,Rain,Rain,200,2012-12-04 10:35:00
3:55 AM,55.4,51.8,88,29.63,2.5,SSW,23.0,40.3,0.02,Rain,Rain,200,2012-12-04 10:55:00
4:15 AM,55.4,51.8,88,29.64,4.0,SSW,26.5,43.7,0.01,Rain,Light Rain,200,2012-12-04 11:15:00
4:35 AM,55.4,51.8,88,29.65,5.0,SSW,17.3,25.3,0.01,Rain,Rain,200,2012-12-04 11:35:00
4:55 AM,55.4,51.8,88,29.66,10.0,South,20.7,29.9,0.01,,Overcast,190,2012-12-04 11:55:00
5:15 AM,57.2,53.6,88,29.66,10.0,SSW,12.7,24.2,N/A,,Overcast,200,2012-12-04 12:15:00
5:35 AM,57.2,53.6,88,29.67,5.0,South,15.0,23.0,N/A,Rain,Light Rain,190,2012-12-04 12:35:00
5:55 AM,57.2,53.6,88,29.69,3.0,SSW,13.8,23.0,0.01,Rain,Heavy Rain,210,2012-12-04 12:55:00
6:15 AM,55.4,53.6,94,29.70,4.0,SSW,13.8,23.0,0.01,Rain,Light Rain,210,2012-12-04 13:15:00
6:35 AM,55.4,53.6,94,29.71,4.0,SSW,10.4,17.3,0.01,Rain,Light Rain,210,2012-12-04 13:35:00
6:55 AM,57.2,53.6,88,29.72,10.0,SW,12.7,17.3,0.01,,Overcast,230,2012-12-04 13:55:00
7:15 AM,55.4,53.6,94,29.73,7.0,SW,11.5,16.1,N/A,,Light Drizzle,220,2012-12-04 14:15:00
7:35 AM,55.4,53.6,94,29.74,4.0,WSW,9.2,-,0.01,Rain,Rain,240,2012-12-04 14:35:00
7:55 AM,53.6,51.8,94,29.76,3.0,WSW,12.7,-,0.03,Rain,Light Rain,240,2012-12-04 14:55:00
8:15 AM,53.6,50.0,88,29.76,5.0,WSW,4.6,-,N/A,Rain,Rain,240,2012-12-04 15:15:00
8:35 AM,53.6,50.0,88,29.78,4.0,SSE,4.6,-,0.01,,Drizzle,160,2012-12-04 15:35:00
8:55 AM,51.8,50.0,94,29.78,2.5,SW,3.5,-,0.01,,Drizzle,220,2012-12-04 15:55:00
9:15 AM,51.8,50.0,94,29.80,10.0,South,5.8,-,0.01,Rain,Light Rain,180,2012-12-04 16:15:00
9:35 AM,51.8,50.0,94,29.81,5.0,South,4.6,-,0.01,,Drizzle,180,2012-12-04 16:35:00
9:55 AM,53.6,50.0,88,29.81,7.0,SE,3.5,-,0.01,,Overcast,130,2012-12-04 16:55:00
10:15 AM,53.6,50.0,88,29.82,2.0,SE,3.5,-,0.02,Rain,Rain,140,2012-12-04 17:15:00
10:35 AM,53.6,51.8,94,29.82,2.0,ESE,4.6,-,0.04,Rain,Light Rain,110,2012-12-04 17:35:00
10:55 AM,51.8,51.8,100,29.83,2.5,ESE,3.5,-,0.05,Rain,Rain,120,2012-12-04 17:55:00
11:15 AM,53.6,53.6,100,29.83,4.0,South,3.5,-,0.01,,Drizzle,190,2012-12-04 18:15:00
11:35 AM,53.6,51.8,94,29.83,3.0,South,4.6,-,0.02,Rain,Light Rain,190,2012-12-04 18:35:00
11:55 AM,53.6,51.8,94,29.84,3.0,SSW,3.5,-,0.04,Rain,Heavy Rain,210,2012-12-04 18:55:00
12:15 PM,53.6,51.8,94,29.84,2.5,Calm,Calm,-,0.04,Rain,Rain,0,2012-12-04 19:15:00
12:35 PM,53.6,53.6,100,29.83,4.0,SSW,8.1,-,0.06,Rain,Rain,210,2012-12-04 19:35:00
12:55 PM,53.6,51.8,94,29.83,2.5,WNW,4.6,-,0.08,Rain,Light Rain,300,2012-12-04 19:55:00
1:15 PM,53.6,51.8,94,29.83,3.0,WSW,11.5,16.1,0.01,Rain,Rain,240,2012-12-04 20:15:00
1:35 PM,53.6,51.8,94,29.83,2.5,WSW,6.9,-,0.03,Rain,Light Rain,240,2012-12-04 20:35:00
1:55 PM,53.6,48.2,82,29.83,7.0,SW,6.9,-,0.04,Rain,Rain,220,2012-12-04 20:55:00
2:15 PM,53.6,50.0,88,29.83,5.0,SE,5.8,-,0.03,Rain,Rain,130,2012-12-04 21:15:00
2:35 PM,51.8,48.2,88,29.83,5.0,SE,5.8,-,0.05,Rain,Rain,140,2012-12-04 21:35:00
2:55 PM,51.8,48.2,88,29.83,3.0,SE,6.9,-,0.10,Rain,Rain,140,2012-12-04 21:55:00
3:15 PM,51.8,48.2,88,29.82,4.0,ESE,8.1,-,0.02,Rain,Rain,120,2012-12-04 22:15:00
3:55 PM,51.8,48.2,88,29.80,4.0,East,4.6,-,0.08,Rain,Rain,90,2012-12-04 22:55:00
4:15 PM,51.8,50.0,94,29.82,4.0,SE,4.6,-,0.03,Rain,Rain,130,2012-12-04 23:15:00
4:35 PM,51.8,50.0,94,29.82,4.0,SE,4.6,-,0.07,Rain,Rain,130,2012-12-04 23:35:00
4:55 PM,51.8,50.0,94,29.82,7.0,Calm,Calm,-,0.10,Rain,Rain,0,2012-12-04 23:55:00
5:15 PM,51.8,50.0,94,29.82,3.0,SE,4.6,-,0.01,,Heavy Drizzle,140,2012-12-05 00:15:00
5:35 PM,51.8,50.0,94,29.81,4.0,ESE,4.6,-,0.03,Rain,Heavy Rain,120,2012-12-05 00:35:00
5:55 PM,51.8,50.0,94,29.81,5.0,Calm,Calm,-,0.04,Rain,Rain,0,2012-12-05 00:55:00
6:15 PM,51.8,51.8,100,29.81,5.0,Calm,Calm,-,0.04,Rain,Rain,0,2012-12-05 01:15:00
6:35 PM,51.8,51.8,100,29.81,4.0,SW,3.5,-,0.09,Rain,Rain,230,2012-12-05 01:35:00
6:55 PM,51.8,51.8,100,29.81,4.0,Calm,Calm,-,0.14,Rain,Rain,0,2012-12-05 01:55:00
7:15 PM,51.8,51.8,100,29.83,4.0,WSW,11.5,18.4,0.06,Rain,Rain,250,2012-12-05 02:15:00
7:35 PM,51.8,50.0,94,29.83,7.0,SW,13.8,19.6,0.07,Rain,Light Rain,230,2012-12-05 02:35:00
7:55 PM,51.8,48.2,88,29.84,7.0,SW,5.8,-,0.08,Rain,Light Rain,230,2012-12-05 02:55:00
8:15 PM,51.8,48.2,88,29.84,7.0,SW,3.5,-,0.01,Rain,Rain,220,2012-12-05 03:15:00
8:35 PM,51.8,48.2,88,29.86,5.0,WSW,10.4,-,0.03,Rain,Rain,240,2012-12-05 03:35:00
8:55 PM,51.8,48.2,88,29.86,5.0,SSW,4.6,-,0.08,Rain,Rain,210,2012-12-05 03:55:00
9:15 PM,51.8,48.2,88,29.87,10.0,South,4.6,-,N/A,,Overcast,190,2012-12-05 04:15:00
9:35 PM,51.8,48.2,88,29.88,10.0,SW,8.1,-,N/A,,Overcast,230,2012-12-05 04:35:00
9:55 PM,51.8,48.2,88,29.89,10.0,WSW,5.8,-,N/A,,Overcast,240,2012-12-05 04:55:00
10:15 PM,51.8,46.4,82,29.90,10.0,SW,10.4,17.3,N/A,,Overcast,230,2012-12-05 05:15:00
10:35 PM,50.0,44.6,82,29.91,10.0,SW,4.6,-,N/A,,Mostly Cloudy,230,2012-12-05 05:35:00
10:55 PM,50.0,44.6,82,29.91,10.0,SW,4.6,-,N/A,,Overcast,230,2012-12-05 05:55:00
11:15 PM,50.0,44.6,82,29.93,10.0,SW,5.8,-,N/A,,Overcast,230,2012-12-05 06:15:00
11:35 PM,50.0,44.6,82,29.93,10.0,WSW,4.6,-,N/A,,Overcast,250,2012-12-05 06:35:00
11:55 PM,50.0,42.8,76,29.95,10.0,West,8.1,-,N/A,,Overcast,270,2012-12-05 06:55:00